カタログに戻る

CHUANG XIN 1-03

運用中通信SSO
NORAD 37930·PAYLOAD·🇨🇳 China

打ち上げ Nov 20, 2011 から Jiuquan Satellite Launch Center

Loading…

次のパス (今後24時間)

TLE

最新Source: Space-Track

元期: Sep 14, 2026, 15:28 UTC

1 37930U 11068A   26257.64504808 -.00000171  00000-0 -48434-4 0  9993
2 37930  98.6974 275.2687 0014225 210.8036 287.9740 14.30552985773442

AllMySatでCHUANG XIN 1-03をリアルタイム追跡

Download on the App Store